Time,TemperatureF,DewpointF,PressureIn,WindDirection,WindDirectionDegrees,WindSpeedMPH,WindSpeedGustMPH,Humidity,HourlyPrecipIn,Conditions,Clouds,dailyrainin,SolarRadiationWatts/m^2,SoftwareType,DateUTC
2013-04-24 00:00:00,30.9,24.2,30.05,WNW,290,3.0,3.0,76,0.00,,,0.41,0,Wunderground v.1.15,2013-04-24 05:00:00,
2013-04-24 00:06:00,30.6,23.9,30.05,WNW,303,2.0,3.0,76,0.00,,,0.00,0,Wunderground v.1.15,2013-04-24 05:06:00,
2013-04-24 00:13:00,30.5,24.1,30.04,West,275,2.0,3.0,77,0.00,,,0.00,0,Wunderground v.1.15,2013-04-24 05:13:00,
2013-04-24 00:18:00,30.3,24.3,30.04,WNW,284,2.0,3.0,78,0.00,,,0.00,0,Wunderground v.1.15,2013-04-24 05:18:00,
2013-04-24 00:23:00,30.2,23.9,30.04,West,281,2.0,2.0,77,0.00,,,0.00,0,Wunderground v.1.15,2013-04-24 05:23:00,
2013-04-24 00:29:00,29.9,24.2,30.04,WSW,242,2.0,3.0,79,0.00,,,0.00,0,Wunderground v.1.15,2013-04-24 05:29:00,
2013-04-24 00:34:00,29.7,24.6,30.04,West,265,3.0,3.0,81,0.00,,,0.00,0,Wunderground v.1.15,2013-04-24 05:34:00,
2013-04-24 00:40:00,29.3,23.9,30.04,WSW,252,2.0,3.0,80,0.00,,,0.00,0,Wunderground v.1.15,2013-04-24 05:40:00,
2013-04-24 00:46:00,29.5,24.7,30.04,West,263,2.0,3.0,82,0.00,,,0.00,0,Wunderground v.1.15,2013-04-24 05:46:00,
2013-04-24 00:51:00,29.1,23.7,30.04,SW,236,2.0,4.0,80,0.00,,,0.00,0,Wunderground v.1.15,2013-04-24 05:51:00,
2013-04-24 00:57:00,28.5,24.0,30.04,WSW,241,3.0,3.0,83,0.00,,,0.00,0,Wunderground v.1.15,2013-04-24 05:57:00,
2013-04-24 01:02:00,28.2,24.3,30.04,WSW,241,3.0,3.0,85,0.00,,,0.00,0,Wunderground v.1.15,2013-04-24 06:02:00,
2013-04-24 01:07:00,28.1,24.7,30.04,WSW,241,3.0,3.0,87,0.00,,,0.00,0,Wunderground v.1.15,2013-04-24 06:07:00,
2013-04-24 01:13:00,28.3,24.9,30.04,WSW,241,3.0,3.0,87,0.00,,,0.00,0,Wunderground v.1.15,2013-04-24 06:13:00,
2013-04-24 01:18:00,28.6,24.7,30.04,WSW,241,3.0,3.0,85,0.00,,,0.00,0,Wunderground v.1.15,2013-04-24 06:18:00,
2013-04-24 01:24:00,28.0,24.4,30.04,WSW,241,2.0,3.0,86,0.00,,,0.00,0,Wunderground v.1.15,2013-04-24 06:24:00,
2013-04-24 01:30:00,27.4,24.0,30.03,WSW,241,3.0,3.0,87,0.00,,,0.00,0,Wunderground v.1.15,2013-04-24 06:30:00,
2013-04-24 01:35:00,27.2,24.1,30.03,WSW,241,3.0,3.0,88,0.00,,,0.00,0,Wunderground v.1.15,2013-04-24 06:35:00,
2013-04-24 01:41:00,26.9,23.8,30.03,WSW,239,3.0,4.0,88,0.00,,,0.00,0,Wunderground v.1.15,2013-04-24 06:41:00,
2013-04-24 01:46:00,27.1,24.3,30.03,WSW,240,3.0,4.0,89,0.00,,,0.00,0,Wunderground v.1.15,2013-04-24 06:46:00,
2013-04-24 01:52:00,27.8,25.0,30.03,WSW,240,3.0,4.0,89,0.00,,,0.00,0,weatherlink.com 1.10,2013-04-24 06:52:00,
2013-04-24 01:57:00,28.0,25.2,30.03,SW,216,3.0,4.0,89,0.00,,,0.00,0,Wunderground v.1.15,2013-04-24 06:57:00,
2013-04-24 02:02:00,27.7,24.6,30.03,SW,226,3.0,4.0,88,0.00,,,0.00,0,Wunderground v.1.15,2013-04-24 07:02:00,
2013-04-24 02:08:00,27.4,24.3,30.03,WSW,238,2.0,4.0,88,0.00,,,0.00,0,Wunderground v.1.15,2013-04-24 07:08:00,
2013-04-24 02:14:00,26.9,24.1,30.03,SW,235,2.0,3.0,89,0.00,,,0.00,0,Wunderground v.1.15,2013-04-24 07:14:00,
2013-04-24 02:19:00,26.5,24.0,30.03,SW,234,3.0,3.0,90,0.00,,,0.00,0,Wunderground v.1.15,2013-04-24 07:19:00,
2013-04-24 02:24:00,26.3,23.8,30.03,SW,234,3.0,4.0,90,0.00,,,0.00,0,Wunderground v.1.15,2013-04-24 07:24:00,
2013-04-24 02:29:00,26.4,24.1,30.03,WSW,252,3.0,4.0,91,0.00,,,0.00,0,Wunderground v.1.15,2013-04-24 07:29:00,
2013-04-24 02:34:00,26.4,24.1,30.03,WSW,251,4.0,6.0,91,0.00,,,0.00,0,Wunderground v.1.15,2013-04-24 07:34:00,
2013-04-24 02:39:00,26.7,24.4,30.03,WSW,244,4.0,6.0,91,0.00,,,0.00,0,Wunderground v.1.15,2013-04-24 07:39:00,
2013-04-24 02:44:00,27.1,24.8,30.03,WSW,249,5.0,5.0,91,0.00,,,0.00,0,Wunderground v.1.15,2013-04-24 07:44:00,
2013-04-24 02:49:00,27.4,25.1,30.03,WSW,246,4.0,5.0,91,0.00,,,0.00,0,Wunderground v.1.15,2013-04-24 07:49:00,
2013-04-24 02:55:00,27.2,24.9,30.03,SW,231,4.0,5.0,91,0.00,,,0.00,0,Wunderground v.1.15,2013-04-24 07:55:00,
2013-04-24 03:01:00,27.5,25.2,30.03,SW,232,4.0,4.0,91,0.00,,,0.00,0,Wunderground v.1.15,2013-04-24 08:01:00,
2013-04-24 03:06:00,27.6,25.3,30.03,SW,230,4.0,6.0,91,0.00,,,0.00,0,Wunderground v.1.15,2013-04-24 08:06:00,
2013-04-24 03:12:00,27.4,24.9,30.03,SW,231,4.0,4.0,90,0.00,,,0.00,0,Wunderground v.1.15,2013-04-24 08:12:00,
2013-04-24 03:22:00,27.2,25.0,30.03,SW,232,2.0,6.0,91,0.00,,,0.00,0,weatherlink.com 1.10,2013-04-24 08:22:00,
2013-04-24 03:37:00,26.9,25.0,30.03,SW,226,4.0,6.0,91,0.00,,,0.00,0,weatherlink.com 1.10,2013-04-24 08:37:00,
2013-04-24 03:52:00,26.8,25.0,30.03,SW,223,3.0,5.0,92,0.00,,,0.00,0,weatherlink.com 1.10,2013-04-24 08:52:00,
2013-04-24 04:07:00,26.5,25.0,30.02,SW,224,3.0,5.0,92,0.00,,,0.00,0,weatherlink.com 1.10,2013-04-24 09:07:00,
2013-04-24 04:22:00,26.7,25.0,30.02,SW,227,2.0,4.0,92,0.00,,,0.00,0,weatherlink.com 1.10,2013-04-24 09:22:00,
2013-04-24 04:37:00,26.2,25.0,30.02,SW,225,2.0,4.0,93,0.00,,,0.00,0,weatherlink.com 1.10,2013-04-24 09:37:00,
2013-04-24 04:52:00,26.1,24.0,30.02,SW,222,3.0,6.0,93,0.00,,,0.00,0,weatherlink.com 1.10,2013-04-24 09:52:00,
2013-04-24 05:07:00,26.3,25.0,30.02,SW,219,7.0,7.0,93,0.00,,,0.00,0,weatherlink.com 1.10,2013-04-24 10:07:00,
2013-04-24 05:22:00,26.7,25.0,30.02,SSW,207,5.0,7.0,94,0.00,,,0.00,0,weatherlink.com 1.10,2013-04-24 10:22:00,
2013-04-24 05:37:00,26.6,25.0,30.01,SSW,211,5.0,7.0,93,0.00,,,0.00,0,weatherlink.com 1.10,2013-04-24 10:37:00,
2013-04-24 05:52:00,26.6,25.0,30.01,SSW,201,5.0,7.0,93,0.00,,,0.00,0,weatherlink.com 1.10,2013-04-24 10:52:00,
2013-04-24 06:08:00,26.7,25.0,30.00,SW,219,5.0,6.0,93,0.00,,,0.00,0,weatherlink.com 1.10,2013-04-24 11:08:00,
2013-04-24 06:23:00,26.7,25.0,30.00,SW,229,4.0,7.0,93,0.00,,,0.00,9,weatherlink.com 1.10,2013-04-24 11:23:00,
2013-04-24 06:38:00,26.5,25.0,30.00,SSW,205,7.0,8.0,92,0.00,,,0.00,18,weatherlink.com 1.10,2013-04-24 11:38:00,
2013-04-24 06:53:00,26.9,25.0,30.00,SW,216,6.0,7.0,92,0.00,,,0.00,35,weatherlink.com 1.10,2013-04-24 11:53:00,
2013-04-24 07:08:00,27.6,25.0,29.99,SW,214,5.0,8.0,91,0.00,,,0.00,63,weatherlink.com 1.10,2013-04-24 12:08:00,
2013-04-24 07:23:00,28.2,26.0,29.99,South,182,8.0,10.0,90,0.00,,,0.00,111,weatherlink.com 1.10,2013-04-24 12:23:00,
2013-04-24 07:38:00,29.0,26.0,29.99,SSW,212,7.0,13.0,89,0.00,,,0.00,156,weatherlink.com 1.10,2013-04-24 12:38:00,
2013-04-24 07:53:00,29.7,26.0,29.99,WSW,238,9.0,12.0,87,0.00,,,0.00,207,weatherlink.com 1.10,2013-04-24 12:53:00,
2013-04-24 08:08:00,30.7,27.0,29.99,WSW,240,5.0,11.0,86,0.00,,,0.00,285,weatherlink.com 1.10,2013-04-24 13:08:00,
2013-04-24 08:23:00,31.4,27.0,29.98,WSW,244,5.0,11.0,85,0.00,,,0.00,315,weatherlink.com 1.10,2013-04-24 13:23:00,
2013-04-24 08:38:00,32.2,28.0,29.99,SW,215,7.0,13.0,83,0.00,,,0.00,353,weatherlink.com 1.10,2013-04-24 13:38:00,
2013-04-24 08:53:00,32.9,28.0,29.98,SW,216,7.0,14.0,82,0.00,,,0.00,403,weatherlink.com 1.10,2013-04-24 13:53:00,
2013-04-24 09:08:00,33.5,28.0,29.98,SW,219,7.0,13.0,81,0.00,,,0.00,455,weatherlink.com 1.10,2013-04-24 14:08:00,
2013-04-24 09:23:00,34.7,29.0,29.98,SW,223,8.0,14.0,80,0.00,,,0.00,503,weatherlink.com 1.10,2013-04-24 14:23:00,
2013-04-24 09:38:00,35.1,29.0,29.98,SW,233,6.0,14.0,78,0.00,,,0.00,541,weatherlink.com 1.10,2013-04-24 14:38:00,
2013-04-24 09:54:00,35.7,29.0,29.98,SW,227,11.0,16.0,78,0.00,,,0.00,591,weatherlink.com 1.10,2013-04-24 14:54:00,
2013-04-24 10:24:00,37.8,31.0,29.97,SW,217,11.0,15.0,75,0.00,,,0.00,675,weatherlink.com 1.10,2013-04-24 15:24:00,
2013-04-24 10:39:00,38.6,31.0,29.97,SW,236,8.0,15.0,75,0.00,,,0.00,710,weatherlink.com 1.10,2013-04-24 15:39:00,
2013-04-24 10:54:00,39.8,32.0,29.97,West,259,8.0,16.0,73,0.00,,,0.00,749,weatherlink.com 1.10,2013-04-24 15:54:00,
2013-04-24 11:09:00,40.3,32.0,29.97,SW,214,9.0,16.0,72,0.00,,,0.00,770,weatherlink.com 1.10,2013-04-24 16:09:00,
2013-04-24 11:24:00,41.3,33.0,29.96,SW,219,12.0,17.0,71,0.00,,,0.00,798,weatherlink.com 1.10,2013-04-24 16:24:00,
2013-04-24 11:39:00,42.5,33.0,29.96,SW,225,11.0,18.0,68,0.00,,,0.00,821,weatherlink.com 1.10,2013-04-24 16:39:00,
2013-04-24 11:52:00,42.8,33.3,29.96,SW,229,11.0,12.0,69,0.00,,,0.00,846,Wunderground v.1.15,2013-04-24 16:52:00,
2013-04-24 11:58:00,43.5,34.4,29.96,WSW,257,10.0,14.0,70,0.00,,,0.00,814,Wunderground v.1.15,2013-04-24 16:58:00,
2013-04-24 12:03:00,43.6,33.7,29.96,SSW,200,8.0,11.0,68,0.00,,,0.00,856,Wunderground v.1.15,2013-04-24 17:03:00,
2013-04-24 12:09:00,43.6,33.4,29.96,SW,222,9.0,13.0,67,0.00,,,0.00,823,Wunderground v.1.15,2013-04-24 17:09:00,
2013-04-24 12:14:00,44.0,33.7,29.96,WSW,238,10.0,15.0,67,0.00,,,0.00,865,Wunderground v.1.15,2013-04-24 17:14:00,
2013-04-24 12:20:00,44.3,34.0,29.95,WSW,239,11.0,14.0,67,0.00,,,0.00,865,Wunderground v.1.15,2013-04-24 17:20:00,
2013-04-24 12:26:00,44.9,35.0,29.95,SW,223,11.0,16.0,68,0.00,,,0.00,889,Wunderground v.1.15,2013-04-24 17:26:00,
2013-04-24 12:31:00,44.9,33.8,29.95,WSW,238,11.0,11.0,65,0.00,,,0.00,803,Wunderground v.1.15,2013-04-24 17:31:00,
2013-04-24 12:37:00,45.3,33.8,29.94,WSW,244,12.0,17.0,64,0.00,,,0.00,831,Wunderground v.1.15,2013-04-24 17:37:00,
2013-04-24 12:42:00,45.8,33.1,29.94,SW,235,14.0,20.0,61,0.00,,,0.00,900,Wunderground v.1.15,2013-04-24 17:42:00,
2013-04-24 12:48:00,45.7,33.4,29.94,WSW,253,14.0,20.0,62,0.00,,,0.00,898,Wunderground v.1.15,2013-04-24 17:48:00,
2013-04-24 12:53:00,46.2,35.1,29.94,SSW,212,12.0,13.0,65,0.00,,,0.00,895,Wunderground v.1.15,2013-04-24 17:53:00,
2013-04-24 12:59:00,46.2,34.7,29.93,SW,221,10.0,18.0,64,0.00,,,0.00,889,Wunderground v.1.15,2013-04-24 17:59:00,
2013-04-24 13:04:00,46.4,35.3,29.93,SSW,207,11.0,16.0,65,0.00,,,0.00,888,Wunderground v.1.15,2013-04-24 18:04:00,
2013-04-24 13:10:00,46.4,34.0,29.93,West,259,16.0,24.0,63,0.00,,,0.00,898,weatherlink.com 1.10,2013-04-24 18:10:00,
2013-04-24 13:15:00,46.8,33.6,29.93,West,260,15.0,23.0,60,0.00,,,0.00,896,Wunderground v.1.15,2013-04-24 18:15:00,
2013-04-24 13:20:00,47.8,34.6,29.92,WSW,244,14.0,14.0,60,0.00,,,0.00,912,Wunderground v.1.15,2013-04-24 18:20:00,
2013-04-24 13:26:00,47.9,34.0,29.92,SW,223,9.0,21.0,58,0.00,,,0.00,905,weatherlink.com 1.10,2013-04-24 18:26:00,
2013-04-24 13:31:00,47.5,34.3,29.92,WSW,238,12.0,12.0,60,0.00,,,0.00,969,Wunderground v.1.15,2013-04-24 18:31:00,
2013-04-24 13:36:00,47.5,33.0,29.91,SW,226,12.0,20.0,57,0.00,,,0.00,909,Wunderground v.1.15,2013-04-24 18:36:00,
2013-04-24 13:42:00,47.5,31.2,29.92,WSW,242,17.0,28.0,53,0.00,,,0.00,882,Wunderground v.1.15,2013-04-24 18:42:00,
2013-04-24 13:48:00,47.9,30.1,29.92,SW,236,18.0,28.0,50,0.00,,,0.00,875,Wunderground v.1.15,2013-04-24 18:48:00,
2013-04-24 13:54:00,47.6,30.8,29.91,SSW,209,16.0,25.0,52,0.00,,,0.00,875,Wunderground v.1.15,2013-04-24 18:54:00,
2013-04-24 14:00:00,47.8,30.0,29.91,West,263,18.0,21.0,50,0.00,,,0.00,870,Wunderground v.1.15,2013-04-24 19:00:00,
2013-04-24 14:05:00,48.2,31.9,29.91,SW,235,17.0,21.0,53,0.00,,,0.00,875,Wunderground v.1.15,2013-04-24 19:05:00,
2013-04-24 14:10:00,48.6,33.6,29.91,WSW,237,16.0,23.0,56,0.00,,,0.00,863,Wunderground v.1.15,2013-04-24 19:10:00,
2013-04-24 14:16:00,47.9,32.0,29.91,WSW,237,16.0,28.0,54,0.00,,,0.00,854,Wunderground v.1.15,2013-04-24 19:16:00,
2013-04-24 14:22:00,48.3,32.9,29.91,WSW,255,16.0,17.0,55,0.00,,,0.00,875,Wunderground v.1.15,2013-04-24 19:22:00,
2013-04-24 14:27:00,48.1,31.3,29.91,SW,231,16.0,21.0,52,0.00,,,0.00,833,Wunderground v.1.15,2013-04-24 19:27:00,
2013-04-24 14:33:00,47.9,31.1,29.90,WSW,240,17.0,19.0,52,0.00,,,0.00,772,Wunderground v.1.15,2013-04-24 19:33:00,
2013-04-24 14:38:00,48.3,32.9,29.91,SW,217,16.0,19.0,55,0.00,,,0.00,846,Wunderground v.1.15,2013-04-24 19:38:00,
2013-04-24 14:44:00,48.2,30.9,29.90,WSW,250,15.0,21.0,51,0.00,,,0.00,826,Wunderground v.1.15,2013-04-24 19:44:00,
2013-04-24 14:50:00,48.0,30.7,29.90,SW,219,17.0,20.0,51,0.00,,,0.00,817,Wunderground v.1.15,2013-04-24 19:50:00,
2013-04-24 14:55:00,47.6,30.8,29.91,WSW,241,18.0,20.0,52,0.00,,,0.00,807,Wunderground v.1.15,2013-04-24 19:55:00,
2013-04-24 15:01:00,48.1,30.8,29.91,SW,232,19.0,26.0,51,0.00,,,0.00,809,Wunderground v.1.15,2013-04-24 20:01:00,
2013-04-24 15:06:00,48.5,31.7,29.90,South,190,17.0,26.0,52,0.00,,,0.00,809,Wunderground v.1.15,2013-04-24 20:06:00,
2013-04-24 15:11:00,48.4,32.0,29.90,South,190,16.0,22.0,53,0.00,,,0.00,773,Wunderground v.1.15,2013-04-24 20:11:00,
2013-04-24 15:16:00,48.2,33.2,29.90,SSW,207,16.0,22.0,56,0.00,,,0.00,566,Wunderground v.1.15,2013-04-24 20:16:00,
2013-04-24 15:22:00,47.9,32.5,29.90,SSW,211,14.0,14.0,55,0.00,,,0.00,503,Wunderground v.1.15,2013-04-24 20:22:00,
2013-04-24 15:27:00,47.7,32.3,29.90,SSW,211,13.0,20.0,55,0.00,,,0.00,533,Wunderground v.1.15,2013-04-24 20:27:00,
2013-04-24 15:33:00,47.4,31.6,29.90,SW,226,15.0,18.0,54,0.00,,,0.00,438,Wunderground v.1.15,2013-04-24 20:33:00,
2013-04-24 15:38:00,47.8,31.0,29.90,SW,229,15.0,21.0,52,0.00,,,0.00,649,Wunderground v.1.15,2013-04-24 20:38:00,
2013-04-24 15:44:00,47.8,32.4,29.90,WSW,240,14.0,18.0,55,0.00,,,0.00,279,Wunderground v.1.15,2013-04-24 20:44:00,
2013-04-24 15:50:00,47.7,32.3,29.89,WSW,253,14.0,14.0,55,0.00,,,0.00,385,Wunderground v.1.15,2013-04-24 20:50:00,
2013-04-24 15:56:00,48.0,32.0,29.89,SW,219,19.0,24.0,54,0.00,,,0.00,429,weatherlink.com 1.10,2013-04-24 20:56:00,
2013-04-24 16:01:00,47.9,31.6,29.89,SW,229,14.0,15.0,53,0.00,,,0.00,504,Wunderground v.1.15,2013-04-24 21:01:00,
2013-04-24 16:06:00,48.2,33.2,29.88,SW,232,16.0,21.0,56,0.00,,,0.00,341,Wunderground v.1.15,2013-04-24 21:06:00,
2013-04-24 16:12:00,48.7,31.8,29.88,SW,227,16.0,16.0,52,0.00,,,0.00,480,Wunderground v.1.15,2013-04-24 21:12:00,
2013-04-24 16:17:00,49.0,30.1,29.88,WNW,288,14.0,17.0,48,0.00,,,0.00,432,Wunderground v.1.15,2013-04-24 21:17:00,
2013-04-24 16:23:00,48.8,31.0,29.88,SW,232,14.0,19.0,50,0.00,,,0.00,455,Wunderground v.1.15,2013-04-24 21:23:00,
2013-04-24 16:29:00,48.6,30.8,29.88,West,263,15.0,19.0,50,0.00,,,0.00,279,Wunderground v.1.15,2013-04-24 21:29:00,
2013-04-24 16:35:00,48.1,31.8,29.88,SW,233,14.0,19.0,53,0.00,,,0.00,207,Wunderground v.1.15,2013-04-24 21:35:00,
2013-04-24 16:41:00,47.3,31.5,29.88,WSW,250,14.0,17.0,54,0.00,,,0.00,135,Wunderground v.1.15,2013-04-24 21:41:00,
2013-04-24 16:46:00,47.2,32.3,29.88,WSW,238,13.0,23.0,56,0.00,,,0.00,176,Wunderground v.1.15,2013-04-24 21:46:00,
2013-04-24 16:51:00,46.7,31.4,29.88,WSW,240,14.0,16.0,55,0.00,,,0.00,195,Wunderground v.1.15,2013-04-24 21:51:00,
2013-04-24 16:56:00,46.9,32.0,29.88,West,263,14.0,16.0,56,0.00,,,0.00,232,Wunderground v.1.15,2013-04-24 21:56:00,
2013-04-24 17:01:00,47.5,31.7,29.88,SW,235,12.0,13.0,54,0.00,,,0.00,325,Wunderground v.1.15,2013-04-24 22:01:00,
2013-04-24 17:06:00,47.8,30.0,29.88,West,269,12.0,17.0,50,0.00,,,0.00,139,Wunderground v.1.15,2013-04-24 22:06:00,
2013-04-24 17:12:00,47.4,28.0,29.88,West,271,12.0,19.0,48,0.00,,,0.00,72,weatherlink.com 1.10,2013-04-24 22:12:00,
2013-04-24 17:17:00,46.9,27.2,29.87,West,263,11.0,14.0,46,0.00,,,0.00,97,Wunderground v.1.15,2013-04-24 22:17:00,
2013-04-24 17:23:00,46.9,27.2,29.87,West,274,11.0,17.0,46,0.00,,,0.00,221,Wunderground v.1.15,2013-04-24 22:23:00,
2013-04-24 17:29:00,47.2,28.0,29.87,WSW,257,12.0,22.0,47,0.00,,,0.00,301,Wunderground v.1.15,2013-04-24 22:29:00,
2013-04-24 17:35:00,47.0,28.3,29.88,West,273,14.0,17.0,48,0.00,,,0.00,183,Wunderground v.1.15,2013-04-24 22:35:00,
2013-04-24 17:41:00,46.5,30.3,29.87,WNW,287,13.0,14.0,53,0.00,,,0.00,186,Wunderground v.1.15,2013-04-24 22:41:00,
2013-04-24 17:46:00,45.9,30.6,29.88,NW,325,14.0,23.0,55,0.00,,,0.00,179,Wunderground v.1.15,2013-04-24 22:46:00,
2013-04-24 17:51:00,45.5,30.7,29.87,West,277,15.0,21.0,56,0.00,,,0.00,167,Wunderground v.1.15,2013-04-24 22:51:00,
2013-04-24 17:56:00,45.2,31.3,29.88,WNW,293,15.0,21.0,58,0.00,,,0.00,214,Wunderground v.1.15,2013-04-24 22:56:00,
2013-04-24 18:01:00,45.3,31.8,29.88,West,269,13.0,14.0,59,0.00,,,0.00,211,Wunderground v.1.15,2013-04-24 23:01:00,
2013-04-24 18:06:00,45.2,31.7,29.87,NW,308,11.0,15.0,59,0.00,,,0.00,155,Wunderground v.1.15,2013-04-24 23:06:00,
2013-04-24 18:11:00,44.9,31.4,29.87,West,262,11.0,12.0,59,0.00,,,0.00,83,Wunderground v.1.15,2013-04-24 23:11:00,
2013-04-24 18:17:00,44.5,31.9,29.87,WNW,297,12.0,14.0,61,0.00,,,0.00,63,Wunderground v.1.15,2013-04-24 23:17:00,
2013-04-24 18:22:00,44.1,31.9,29.87,WNW,292,10.0,10.0,62,0.00,,,0.00,37,Wunderground v.1.15,2013-04-24 23:22:00,
2013-04-24 18:27:00,43.8,32.0,29.88,WSW,254,8.0,10.0,63,0.00,,,0.00,28,Wunderground v.1.15,2013-04-24 23:27:00,
2013-04-24 18:32:00,43.5,32.9,29.88,WNW,284,10.0,15.0,66,0.00,,,0.00,26,Wunderground v.1.15,2013-04-24 23:32:00,
2013-04-24 18:37:00,42.3,34.3,29.89,WNW,298,12.0,16.0,73,0.00,,,0.00,46,Wunderground v.1.15,2013-04-24 23:37:00,
2013-04-24 18:43:00,40.6,34.6,29.89,NW,312,12.0,14.0,79,0.00,,,0.00,84,Wunderground v.1.15,2013-04-24 23:43:00,
2013-04-24 18:49:00,39.2,34.5,29.89,NW,323,12.0,14.0,83,0.00,,,0.00,42,Wunderground v.1.15,2013-04-24 23:49:00,
2013-04-24 18:55:00,38.3,34.5,29.90,WNW,296,9.0,12.0,86,0.00,,,0.00,32,Wunderground v.1.15,2013-04-24 23:55:00,
2013-04-24 19:01:00,37.8,34.3,29.90,NW,304,7.0,12.0,87,0.00,,,0.00,23,Wunderground v.1.15,2013-04-25 00:01:00,
2013-04-24 19:07:00,37.1,33.9,29.90,NW,313,9.0,12.0,88,0.00,,,0.00,12,Wunderground v.1.15,2013-04-25 00:07:00,
2013-04-24 19:13:00,36.6,34.0,29.90,NNW,342,8.0,17.0,89,0.00,,,0.00,12,weatherlink.com 1.10,2013-04-25 00:13:00,
2013-04-24 19:18:00,36.4,33.7,29.89,NW,318,7.0,13.0,90,0.00,,,0.00,19,Wunderground v.1.15,2013-04-25 00:18:00,
2013-04-24 19:24:00,36.5,34.1,29.89,NNW,329,6.0,7.0,91,0.00,,,0.00,84,Wunderground v.1.15,2013-04-25 00:24:00,
2013-04-24 19:29:00,36.9,34.5,29.89,North,350,6.0,8.0,91,0.00,,,0.00,98,Wunderground v.1.15,2013-04-25 00:29:00,
2013-04-24 19:35:00,37.0,34.6,29.89,North,5,5.0,7.0,91,0.00,,,0.00,53,Wunderground v.1.15,2013-04-25 00:35:00,
2013-04-24 19:40:00,36.8,34.4,29.89,NW,315,4.0,7.0,91,0.00,,,0.00,28,Wunderground v.1.15,2013-04-25 00:40:00,
2013-04-24 19:45:00,36.5,34.1,29.90,NW,317,5.0,7.0,91,0.00,,,0.00,25,Wunderground v.1.15,2013-04-25 00:45:00,
2013-04-24 19:51:00,36.2,33.8,29.90,WNW,298,6.0,8.0,91,0.00,,,0.00,14,Wunderground v.1.15,2013-04-25 00:51:00,
2013-04-24 19:57:00,35.9,33.5,29.90,West,275,5.0,8.0,91,0.00,,,0.00,7,Wunderground v.1.15,2013-04-25 00:57:00,
2013-04-24 20:02:00,35.6,33.2,29.91,West,267,3.0,4.0,91,0.00,,,0.00,0,Wunderground v.1.15,2013-04-25 01:02:00,
2013-04-24 20:07:00,35.8,33.7,29.91,West,269,3.0,6.0,92,0.00,,,0.00,0,Wunderground v.1.15,2013-04-25 01:07:00,
2013-04-24 20:13:00,35.9,33.8,29.91,WSW,248,3.0,5.0,92,0.00,,,0.00,0,Wunderground v.1.15,2013-04-25 01:13:00,
2013-04-24 20:18:00,36.0,33.9,29.91,WSW,248,4.0,6.0,92,0.00,,,0.00,0,Wunderground v.1.15,2013-04-25 01:18:00,
2013-04-24 20:23:00,36.0,33.9,29.91,WSW,245,4.0,5.0,92,0.00,,,0.00,0,Wunderground v.1.15,2013-04-25 01:23:00,
2013-04-24 20:28:00,36.0,33.9,29.91,West,271,5.0,7.0,92,0.00,,,0.00,0,Wunderground v.1.15,2013-04-25 01:28:00,
2013-04-24 20:33:00,35.7,33.6,29.92,West,268,5.0,7.0,92,0.00,,,0.00,0,Wunderground v.1.15,2013-04-25 01:33:00,
2013-04-24 20:38:00,35.6,33.5,29.92,West,271,5.0,9.0,92,0.00,,,0.00,0,Wunderground v.1.15,2013-04-25 01:38:00,
2013-04-24 20:44:00,35.5,33.0,29.92,WSW,246,9.0,11.0,91,0.00,,,0.00,0,weatherlink.com 1.10,2013-04-25 01:44:00,
2013-04-24 20:49:00,35.4,33.0,29.92,WSW,242,7.0,13.0,91,0.00,,,0.00,0,Wunderground v.1.15,2013-04-25 01:49:00,
2013-04-24 20:55:00,35.5,33.4,29.93,WSW,248,8.0,10.0,92,0.00,,,0.00,0,Wunderground v.1.15,2013-04-25 01:55:00,
2013-04-24 21:00:00,35.6,33.5,29.93,WSW,246,9.0,9.0,92,0.00,,,0.00,0,Wunderground v.1.15,2013-04-25 02:00:00,
2013-04-24 21:06:00,35.6,33.5,29.92,WSW,254,8.0,10.0,92,0.00,,,0.00,0,Wunderground v.1.15,2013-04-25 02:06:00,
2013-04-24 21:12:00,35.5,33.4,29.93,WSW,241,6.0,6.0,92,0.00,,,0.00,0,Wunderground v.1.15,2013-04-25 02:12:00,
2013-04-24 21:18:00,35.4,33.3,29.93,West,261,6.0,6.0,92,0.00,,,0.00,0,Wunderground v.1.15,2013-04-25 02:18:00,
2013-04-24 21:24:00,35.3,33.2,29.93,WSW,239,5.0,5.0,92,0.00,,,0.00,0,Wunderground v.1.15,2013-04-25 02:24:00,
2013-04-24 21:30:00,35.3,33.0,29.93,WSW,239,4.0,7.0,92,0.00,,,0.00,0,weatherlink.com 1.10,2013-04-25 02:30:00,
2013-04-24 21:35:00,35.3,33.2,29.93,SW,224,3.0,5.0,92,0.00,,,0.00,0,Wunderground v.1.15,2013-04-25 02:35:00,
2013-04-24 21:41:00,35.0,32.9,29.93,SW,232,3.0,3.0,92,0.00,,,0.00,0,Wunderground v.1.15,2013-04-25 02:41:00,
2013-04-24 21:46:00,34.9,32.8,29.94,SW,227,3.0,4.0,92,0.00,,,0.00,0,Wunderground v.1.15,2013-04-25 02:46:00,
2013-04-24 21:52:00,34.7,32.6,29.94,SW,236,3.0,4.0,92,0.00,,,0.00,0,Wunderground v.1.15,2013-04-25 02:52:00,
2013-04-24 21:57:00,34.6,32.8,29.94,SW,227,4.0,5.0,93,0.00,,,0.00,0,Wunderground v.1.15,2013-04-25 02:57:00,
2013-04-24 22:02:00,34.8,33.0,29.94,SW,235,4.0,5.0,93,0.00,,,0.00,0,Wunderground v.1.15,2013-04-25 03:02:00,
2013-04-24 22:10:00,35.1,33.3,29.94,WSW,244,4.0,7.0,93,0.00,,,0.00,0,Wunderground v.1.15,2013-04-25 03:10:00,
2013-04-24 22:16:00,35.4,33.8,29.94,WSW,248,6.0,9.0,94,0.00,,,0.00,0,Wunderground v.1.15,2013-04-25 03:16:00,
2013-04-24 22:22:00,35.7,33.9,29.94,SW,223,5.0,6.0,93,0.00,,,0.00,0,Wunderground v.1.15,2013-04-25 03:22:00,
2013-04-24 22:28:00,36.0,34.2,29.94,WSW,238,6.0,8.0,93,0.00,,,0.00,0,Wunderground v.1.15,2013-04-25 03:28:00,
2013-04-24 22:34:00,36.2,34.4,29.94,WSW,250,7.0,11.0,93,0.00,,,0.00,0,Wunderground v.1.15,2013-04-25 03:34:00,
2013-04-24 22:39:00,36.4,34.3,29.94,WSW,251,8.0,11.0,92,0.00,,,0.00,0,Wunderground v.1.15,2013-04-25 03:39:00,
2013-04-24 22:45:00,36.6,34.2,29.94,SW,234,9.0,12.0,91,0.00,,,0.00,0,Wunderground v.1.15,2013-04-25 03:45:00,
2013-04-24 22:50:00,36.6,34.2,29.95,West,260,9.0,9.0,91,0.00,,,0.00,0,Wunderground v.1.15,2013-04-25 03:50:00,
2013-04-24 22:55:00,36.6,33.9,29.95,WSW,255,9.0,11.0,90,0.00,,,0.00,0,Wunderground v.1.15,2013-04-25 03:55:00,
2013-04-24 23:01:00,36.6,33.9,29.95,West,263,10.0,11.0,90,0.00,,,0.00,0,Wunderground v.1.15,2013-04-25 04:01:00,
2013-04-24 23:02:00,36.6,33.9,29.95,WNW,285,10.0,13.0,90,0.00,,,0.00,0,Wunderground v.1.15,2013-04-25 04:02:00,
2013-04-24 23:03:00,36.6,33.9,29.95,West,271,10.0,13.0,90,0.00,,,0.00,0,Wunderground v.1.15,2013-04-25 04:03:00,
2013-04-24 23:04:00,36.6,33.9,29.95,NW,306,10.0,13.0,90,0.00,,,0.00,0,Wunderground v.1.15,2013-04-25 04:04:00,
2013-04-24 23:05:00,36.6,33.9,29.95,West,259,10.0,13.0,90,0.00,,,0.00,0,Wunderground v.1.15,2013-04-25 04:05:00,
2013-04-24 23:07:00,36.7,34.0,29.95,West,261,10.0,13.0,90,0.00,,,0.00,0,Wunderground v.1.15,2013-04-25 04:07:00,
2013-04-24 23:13:00,36.7,34.0,29.95,WSW,257,11.0,18.0,90,0.00,,,0.00,0,Wunderground v.1.15,2013-04-25 04:13:00,
2013-04-24 23:19:00,36.5,33.8,29.95,WSW,238,10.0,18.0,90,0.00,,,0.00,0,Wunderground v.1.15,2013-04-25 04:19:00,
2013-04-24 23:24:00,36.4,33.7,29.95,West,261,10.0,16.0,90,0.00,,,0.00,0,Wunderground v.1.15,2013-04-25 04:24:00,
2013-04-24 23:30:00,36.1,33.0,29.95,West,269,11.0,19.0,88,0.00,,,0.00,0,weatherlink.com 1.10,2013-04-25 04:30:00,
2013-04-24 23:36:00,35.9,32.7,29.95,West,278,12.0,16.0,88,0.00,,,0.00,0,Wunderground v.1.15,2013-04-25 04:36:00,
2013-04-24 23:42:00,35.7,32.5,29.95,WNW,302,12.0,13.0,88,0.00,,,0.00,0,Wunderground v.1.15,2013-04-25 04:42:00,
2013-04-24 23:48:00,35.7,32.5,29.95,WNW,297,13.0,19.0,88,0.00,,,0.00,0,Wunderground v.1.15,2013-04-25 04:48:00,
2013-04-24 23:53:00,35.6,32.4,29.95,West,268,13.0,15.0,88,0.00,,,0.00,0,Wunderground v.1.15,2013-04-25 04:53:00,
2013-04-24 23:59:00,35.7,32.8,29.96,WNW,284,13.0,15.0,89,0.00,,,0.00,0,Wunderground v.1.15,2013-04-25 04:59:00,